Time,TemperatureF,DewpointF,PressureIn,WindDirection,WindDirectionDegrees,WindSpeedMPH,WindSpeedGustMPH,Humidity,HourlyPrecipIn,Conditions,Clouds,dailyrainin,SolarRadiationWatts/m^2,SoftwareType,DateUTC
2013-06-22 09:53:00,61.0,56.0,-100.00,NNW,330,4.0,11.0,83,-99.99,,,0.00,274.000000,,2013-06-22 15:53:00,
2013-06-22 10:02:00,61.0,56.0,-100.00,NNW,330,4.0,11.0,83,-99.99,,,0.00,274.000000,,2013-06-22 16:02:00,
2013-06-22 10:12:00,61.0,56.0,-100.00,NNW,330,4.0,11.0,83,-99.99,,,0.00,274.000000,,2013-06-22 16:12:00,
2013-06-22 10:22:00,61.0,56.0,-100.00,NNW,330,4.0,11.0,83,-99.99,,,0.00,274.000000,,2013-06-22 16:22:00,
2013-06-22 10:52:00,68.0,57.0,-100.00,NE,40,5.0,10.0,68,0.00,,,0.00,754.000000,,2013-06-22 16:52:00,
2013-06-22 11:02:00,68.0,57.0,-100.00,NE,40,5.0,10.0,68,0.00,,,0.00,754.000000,,2013-06-22 17:02:00,
2013-06-22 11:11:00,68.0,57.0,-100.00,NE,40,5.0,10.0,68,0.00,,,0.00,754.000000,,2013-06-22 17:11:00,
2013-06-22 11:22:00,68.0,57.0,-100.00,NE,40,5.0,10.0,68,0.00,,,0.00,754.000000,,2013-06-22 17:22:00,
2013-06-22 11:52:00,73.0,58.0,-100.00,NE,35,5.0,11.0,59,0.00,,,0.00,959.000000,,2013-06-22 17:52:00,
2013-06-22 12:02:00,73.0,58.0,-100.00,NE,35,5.0,11.0,59,0.00,,,0.00,959.000000,,2013-06-22 18:02:00,
2013-06-22 12:12:00,73.0,58.0,-100.00,NE,35,5.0,11.0,59,0.00,,,0.00,959.000000,,2013-06-22 18:12:00,
2013-06-22 12:23:00,73.0,58.0,-100.00,NE,35,5.0,11.0,59,0.00,,,0.00,959.000000,,2013-06-22 18:23:00,
2013-06-22 12:52:00,75.0,57.0,-100.00,NNE,14,5.0,13.0,53,0.00,,,0.00,1053.000000,,2013-06-22 18:52:00,
2013-06-22 13:01:00,75.0,57.0,-100.00,NNE,14,5.0,13.0,53,0.00,,,0.00,1053.000000,,2013-06-22 19:01:00,
2013-06-22 13:11:00,75.0,57.0,-100.00,NNE,14,5.0,13.0,53,0.00,,,0.00,1053.000000,,2013-06-22 19:11:00,
2013-06-22 13:22:00,75.0,57.0,-100.00,NNE,14,5.0,13.0,53,0.00,,,0.00,1053.000000,,2013-06-22 19:22:00,
2013-06-22 13:53:00,76.0,56.0,-100.00,North,359,3.0,13.0,50,0.00,,,0.00,751.000000,,2013-06-22 19:53:00,
2013-06-22 14:02:00,76.0,56.0,-100.00,North,359,3.0,13.0,50,0.00,,,0.00,751.000000,,2013-06-22 20:02:00,
2013-06-22 14:11:00,76.0,56.0,-100.00,North,359,3.0,13.0,50,0.00,,,0.00,751.000000,,2013-06-22 20:11:00,
2013-06-22 14:22:00,76.0,56.0,-100.00,North,359,3.0,13.0,50,0.00,,,0.00,751.000000,,2013-06-22 20:22:00,
2013-06-22 14:53:00,70.0,53.0,-100.00,NNE,26,5.0,12.0,55,0.00,,,0.00,412.000000,,2013-06-22 20:53:00,
2013-06-22 15:01:00,70.0,53.0,-100.00,NNE,26,5.0,12.0,55,0.00,,,0.00,412.000000,,2013-06-22 21:01:00,
2013-06-22 15:11:00,70.0,53.0,-100.00,NNE,26,5.0,12.0,55,0.00,,,0.00,412.000000,,2013-06-22 21:11:00,
2013-06-22 15:22:00,70.0,53.0,-100.00,NNE,26,5.0,12.0,55,0.00,,,0.00,412.000000,,2013-06-22 21:22:00,
2013-06-22 15:53:00,68.0,56.0,-100.00,NNW,343,7.0,17.0,65,0.00,,,0.00,170.000000,,2013-06-22 21:53:00,
2013-06-22 16:02:00,68.0,56.0,-100.00,NNW,343,7.0,17.0,65,0.00,,,0.00,170.000000,,2013-06-22 22:02:00,
2013-06-22 16:12:00,68.0,56.0,-100.00,NNW,343,7.0,17.0,65,0.00,,,0.00,170.000000,,2013-06-22 22:12:00,
2013-06-22 16:23:00,68.0,56.0,-100.00,NNW,343,7.0,17.0,65,0.00,,,0.00,170.000000,,2013-06-22 22:23:00,
2013-06-22 16:43:00,59.0,56.0,-100.00,WNW,299,8.0,21.0,89,0.01,,,0.01,51.000000,,2013-06-22 22:43:00,
2013-06-22 16:52:00,59.0,56.0,-100.00,WNW,299,8.0,21.0,89,0.01,,,0.01,51.000000,,2013-06-22 22:52:00,
2013-06-22 17:01:00,59.0,56.0,-100.00,WNW,299,8.0,21.0,89,0.01,,,0.01,51.000000,,2013-06-22 23:01:00,
2013-06-22 17:11:00,59.0,56.0,-100.00,WNW,299,8.0,21.0,89,0.01,,,0.01,51.000000,,2013-06-22 23:11:00,
2013-06-22 17:22:00,59.0,56.0,-100.00,WNW,299,8.0,21.0,89,0.01,,,0.01,51.000000,,2013-06-22 23:22:00,
2013-06-22 17:52:00,56.0,55.0,-100.00,North,1,4.0,15.0,98,0.17,,,0.18,6.000000,,2013-06-22 23:52:00,
2013-06-22 18:01:00,56.0,55.0,-100.00,North,1,4.0,15.0,98,0.17,,,0.18,6.000000,,2013-06-23 00:01:00,
2013-06-22 18:11:00,56.0,55.0,-100.00,North,1,4.0,15.0,98,0.17,,,0.18,6.000000,,2013-06-23 00:11:00,
2013-06-22 18:22:00,56.0,55.0,-100.00,North,1,4.0,15.0,98,0.17,,,0.18,6.000000,,2013-06-23 00:22:00,
2013-06-22 18:53:00,56.0,56.0,-100.00,ESE,119,2.0,7.0,99,0.30,,,0.48,6.000000,,2013-06-23 00:53:00,
2013-06-22 19:01:00,56.0,56.0,-100.00,ESE,119,2.0,7.0,99,0.30,,,0.48,6.000000,,2013-06-23 01:01:00,
2013-06-22 19:11:00,56.0,56.0,-100.00,ESE,119,2.0,7.0,99,0.30,,,0.48,6.000000,,2013-06-23 01:11:00,
2013-06-22 19:22:00,56.0,56.0,-100.00,ESE,119,2.0,7.0,99,0.30,,,0.48,6.000000,,2013-06-23 01:22:00,
2013-06-22 19:52:00,54.0,54.0,-100.00,ENE,78,8.0,14.0,99,0.22,,,0.70,7.000000,,2013-06-23 01:52:00,
2013-06-22 20:01:00,54.0,54.0,-100.00,ENE,78,8.0,14.0,99,0.22,,,0.70,7.000000,,2013-06-23 02:01:00,
2013-06-22 20:11:00,54.0,54.0,-100.00,ENE,78,8.0,14.0,99,0.22,,,0.70,7.000000,,2013-06-23 02:11:00,
2013-06-22 20:21:00,54.0,54.0,-100.00,ENE,78,8.0,14.0,99,0.22,,,0.70,7.000000,,2013-06-23 02:21:00,
2013-06-22 20:52:00,55.0,54.0,-100.00,ENE,75,1.0,8.0,96,0.01,,,0.71,10.000000,,2013-06-23 02:52:00,
2013-06-22 21:01:00,55.0,54.0,-100.00,ENE,75,1.0,8.0,96,0.01,,,0.71,10.000000,,2013-06-23 03:01:00,
2013-06-22 21:11:00,55.0,54.0,-100.00,ENE,75,1.0,8.0,96,0.01,,,0.71,10.000000,,2013-06-23 03:11:00,
2013-06-22 21:21:00,55.0,54.0,-100.00,ENE,75,1.0,8.0,96,0.01,,,0.71,10.000000,,2013-06-23 03:21:00,
2013-06-22 21:52:00,55.0,55.0,-100.00,West,266,5.0,10.0,99,0.00,,,0.71,1.000000,,2013-06-23 03:52:00,
2013-06-22 22:01:00,55.0,55.0,-100.00,West,266,5.0,10.0,99,0.00,,,0.71,1.000000,,2013-06-23 04:01:00,
2013-06-22 22:11:00,55.0,55.0,-100.00,West,266,5.0,10.0,99,0.00,,,0.71,1.000000,,2013-06-23 04:11:00,
2013-06-22 22:21:00,55.0,55.0,-100.00,West,266,5.0,10.0,99,0.00,,,0.71,1.000000,,2013-06-23 04:21:00,
2013-06-22 22:42:00,54.0,54.0,-100.00,WSW,249,3.0,9.0,99,0.00,,,0.71,0.000000,,2013-06-23 04:42:00,
2013-06-22 22:52:00,54.0,54.0,-100.00,WSW,249,3.0,9.0,99,0.00,,,0.71,0.000000,,2013-06-23 04:52:00,
2013-06-22 23:01:00,54.0,54.0,-100.00,WSW,249,3.0,9.0,99,0.00,,,0.71,0.000000,,2013-06-23 05:01:00,
2013-06-22 23:11:00,54.0,54.0,-100.00,WSW,249,3.0,9.0,99,0.00,,,0.71,0.000000,,2013-06-23 05:11:00,
2013-06-22 23:22:00,54.0,54.0,-100.00,WSW,249,3.0,9.0,99,0.00,,,0.71,0.000000,,2013-06-23 05:22:00,
2013-06-22 23:52:00,53.0,53.0,-100.00,West,260,4.0,9.0,99,0.00,,,0.71,0.000000,,2013-06-23 05:52:00,